Bovese

Taurianova-Bovese decisa dalla rete di Marini [FOTO]

La 27a giornata del Campionato di Prima Categoria, ha visto incrociarsi sul campo sportivo "Antonio Battaglia" Taurianova-Bovese. La gara è stata piacevole e giocata a buoni ritmi con gli ospiti bravi nel giro palla,...

Palmese, il 3-0 alla Bovese vale la seconda piazza

Terza vittoria consecutiva per la Palmese che si regala il nono successo tra le mura amiche battendo la Bovese con un rotondo 3-0. A decidere la sfida, al cospetto di un undici ionico tenuto a...

Palmese, contro la Bovese obiettivo secondo posto

Dopo l’l-2 inferto alla Villese per la Palmese arriva la sfida casalinga contro la Bovese il cui ultimo precedente alle pendici del monte Sant’Elia (stagione 1998-99) si concluse sul 2-2. All’andata, al termine di una...

La Bovese frena la corsa della Saint Michel

Finisce in parità la sfida tra Bovese e Saint Michel, alla rete nel primo tempo di Camara risponde nella ripresa Marengo su rigore. La squadra gioiese scesa in campo con poca grinta non brilla nella...

Le reti di Favasulli e Gelonese regalano la vittoria all’Ardore

Vittoria per l’Ardore sul campo della Bovese, che permette alla squadra ionica di continuare la striscia di risultati positivi per rimanere attaccata alle squadre di testa. Scesa in campo con Piccioni, Romeo, Gomez, Bert,...

Prima Categoria girone D… il punto dopo la 9a giornata

Finisce sul nulla di fatto l’attesissima sfida tra Deliese e Palmese con le due squadre che, al termine di novanta minuti equilibrati, anche se sono stati i neroverdi a essere maggiormente propositivi sotto porta,...

Palmese, nonostante l’1-1 con la Bovese primato in solitaria

Dopo le due sconfitte nelle uniche due uscite della sua storia in quel di Bova Marina, la Palmese racimola il primo pareggio. Un pareggio che i padroni di casa della Bovese agguantano per il rotto...

Palmese, quarta uscita in casa della Bovese

Con una vetta della classifica che parla già neroverde, seppur in coabitazione con Deliese e Saint Michel, la Palmese viaggia alla volta di Bova Marina per affrontare la Bovese. La sfida contro gli ionici, protagonisti...
video

Saint Michel – Bovese, le video interviste post gara

Vittoria della Saint Michel che incanala la terza vittoria su tre partite, contro una buona Bovese (leggi qui). La partita è stata decisa dalla punizione magistrale di Carmelo Zappia, sulla quale nulla ha potuto...

La punizione di Zappia regala tre punti alla Saint Michel [FOTO]

Si conclude nel migliore dei modi l'anticipo della terza giornata per la Saint Michel. La formazione Gioiese impegnata nel confronto interno contro la Bovese si è ritrovata a disputare quella che rappresentava la "prova...

Palmese, ecco le avversarie del girone D di Prima Categoria

Svelati i gironi del campionato di Prima Categoria, prossimo al via, per la Palmese (inserita nel girone D) le avversarie da affrontare saranno: Ardore, Bianco, Bovese, Catona, Deliese, Lazzaro, Nuovo Polistena, Palizzi, Pro Pellaro,...

La Pro Pellaro corsara sul campo della Bovese

Vince in trasferta la Pro Pellaro sul campo in erba naturale della Bovese, in una partita maschia ma comunque corretta. Al 5’ vantaggio per gli ospiti grazie alla rete di Jonatan Alderete che di...
DataCasaRisultatiTrasfertaOra
2022-05-29 14:30:0029/05/22- 14:30:0014:30
2022-05-22 14:30:0022/05/224 - 0 14:30:0014:30
2022-05-15 14:30:0015/05/223 - 0 14:30:0014:30
2022-05-08 14:30:0008/05/221 - 0 14:30:0014:30
2022-05-01 14:30:0001/05/223 - 2 14:30:0014:30
2022-04-24 14:30:0024/04/220 - 0 14:30:0014:30
2022-04-16 14:30:0016/04/221 - 3 14:30:0014:30
2022-04-10 14:30:0010/04/220 - 0 14:30:0014:30
2022-04-03 14:30:0003/04/221 - 3 14:30:0014:30
2022-03-27 14:30:0027/03/222 - 2 14:30:0014:30
2022-03-20 14:30:0020/03/224 - 2 14:30:0014:30
2022-03-13 14:30:0013/03/223 - 0 14:30:0014:30
2022-03-06 14:30:0006/03/221 - 1 14:30:0014:30
2022-02-27 14:30:0027/02/222 - 2 14:30:0014:30
2022-02-20 14:30:0020/02/221 - 4 14:30:0014:30
2022-02-13 14:30:0013/02/221 - 1 14:30:0014:30
2022-02-06 14:30:0006/02/220 - 3 14:30:0014:30
2022-01-30 14:30:0030/01/220 - 4 14:30:0014:30
2022-01-23 14:30:0023/01/221 - 1 14:30:0014:30
2021-12-19 14:30:0019/12/212 - 2 14:30:0014:30
2021-12-12 14:30:0012/12/212 - 0 14:30:0014:30
2021-12-05 14:30:0005/12/211 - 1 14:30:0014:30
2021-11-28 14:30:0028/11/210 - 1 14:30:0014:30
2021-11-21 14:30:0021/11/214 - 1 14:30:0014:30
2021-11-14 14:30:0014/11/211 - 3 14:30:0014:30
2021-11-07 15:30:0007/11/211 - 1 15:30:0015:30
2021-10-31 15:30:0031/10/211 - 1 15:30:0015:30
2021-10-23 15:30:0023/10/211 - 0 15:30:0015:30
2021-10-17 15:30:0017/10/210 - 0 15:30:0015:30
2021-10-10 15:30:0010/10/211 - 0 15:30:0015:30
2021-05-16 15:00:0016/05/21- 15:00:0015:00
2021-05-09 15:00:0009/05/21- 15:00:0015:00
2021-05-02 15:00:0002/05/21- 15:00:0015:00
2021-04-25 15:00:0025/04/21- 15:00:0015:00
2021-04-17 15:00:0017/04/21- 15:00:0015:00
2021-04-10 15:00:0010/04/21- 15:00:0015:00
2021-03-28 15:00:0028/03/21- 15:00:0015:00
2021-03-20 15:00:0020/03/21- 15:00:0015:00
2021-03-14 15:00:0014/03/21- 15:00:0015:00
2021-03-06 15:00:0006/03/21- 15:00:0015:00
2021-02-28 15:00:0028/02/21- 15:00:0015:00
2021-02-21 15:00:0021/02/21- 15:00:0015:00
2021-02-14 15:00:0014/02/21- 15:00:0015:00
2021-02-07 15:00:0007/02/21- 15:00:0015:00
2021-01-31 15:00:0031/01/21- 15:00:0015:00
2021-01-24 15:00:0024/01/21- 15:00:0015:00
2021-01-16 15:00:0016/01/21- 15:00:0015:00
2021-01-10 15:00:0010/01/21- 15:00:0015:00
2020-12-20 15:00:0020/12/20- 15:00:0015:00
2020-12-13 15:00:0013/12/20- 15:00:0015:00
2020-12-06 15:00:0006/12/20- 15:00:0015:00
2020-11-29 15:00:0029/11/20- 15:00:0015:00
2020-11-22 15:00:0022/11/20- 15:00:0015:00
2020-11-15 15:00:0015/11/20- 15:00:0015:00
2020-11-08 15:00:0008/11/20- 15:00:0015:00
2020-11-01 15:00:0001/11/20- 15:00:0015:00
2020-10-25 15:00:0025/10/202 - 1 15:00:0015:00
2020-10-17 15:00:0017/10/20- 15:00:0015:00
2020-10-11 15:00:0011/10/201 - 2 15:00:0015:00
2020-10-04 15:00:0004/10/202 - 1 15:00:0015:00
2020-04-26 15:30:0026/04/20- 15:30:0015:30
2020-04-19 15:30:0019/04/20- 15:30:0015:30
2020-03-29 15:30:0029/03/20- 15:30:0015:30
2020-03-22 14:30:0022/03/20- 14:30:0014:30
2020-03-15 14:30:0015/03/20- 14:30:0014:30
2020-03-08 14:30:0008/03/20- 14:30:0014:30
2020-03-01 14:30:0001/03/203 - 2 14:30:0014:30
2020-02-23 14:30:0023/02/204 - 0 14:30:0014:30
2020-02-09 14:30:0009/02/201 - 2 14:30:0014:30
2020-02-02 14:30:0002/02/202 - 0 14:30:0014:30
2020-01-26 14:30:0026/01/202 - 1 14:30:0014:30
2020-01-18 14:30:0018/01/202 - 1 14:30:0014:30
2020-01-12 14:30:0012/01/200 - 0 14:30:0014:30
2019-12-22 14:30:0022/12/192 - 2 14:30:0014:30
2019-12-14 14:30:0014/12/192 - 1 14:30:0014:30
2019-12-08 14:30:0008/12/191 - 2 14:30:0014:30
2019-11-30 14:30:0030/11/191 - 4 14:30:0014:30
2019-11-16 14:30:0016/11/192 - 0 14:30:0014:30
2019-11-09 14:30:0009/11/192 - 1 14:30:0014:30
2019-11-02 14:30:0002/11/191 - 1 14:30:0014:30
2019-10-26 15:30:0026/10/194 - 4 15:30:0015:30
2019-10-19 15:30:0019/10/190 - 4 15:30:0015:30
2019-10-13 15:30:0013/10/190 - 4 15:30:0015:30
2019-10-06 15:30:0006/10/193 - 0 15:30:0015:30
2019-09-28 15:30:0028/09/190 - 1 15:30:0015:30
2019-09-21 15:30:0021/09/190 - 0 15:30:0015:30
2019-05-05 16:00:0005/05/195 - 2 16:00:0016:00
2019-04-28 16:00:0028/04/191 - 2 16:00:0016:00
2019-04-07 16:00:0007/04/194 - 1 16:00:0016:00
2019-03-31 16:00:0031/03/191 - 1 16:00:0016:00
2019-03-24 15:00:0024/03/190 - 0 15:00:0015:00
2019-03-17 15:00:0017/03/194 - 1 15:00:0015:00
2019-03-10 15:00:0010/03/193 - 1 15:00:0015:00
2019-03-03 15:00:0003/03/190 - 1 15:00:0015:00
2019-02-24 14:30:0024/02/191 - 0 14:30:0014:30
2019-02-17 14:30:0017/02/190 - 1 14:30:0014:30
2019-02-10 14:30:0010/02/190 - 2 14:30:0014:30
2019-02-03 14:30:0003/02/191 - 1 14:30:0014:30
2019-01-27 14:30:0027/01/192 - 2 14:30:0014:30
2019-01-20 14:30:0020/01/190 - 0 14:30:0014:30
2019-01-20 14:30:0020/01/190 - 0 14:30:0014:30
2019-01-13 14:30:0013/01/191 - 5 14:30:0014:30
2018-12-23 14:30:0023/12/180 - 1 14:30:0014:30
2018-12-16 14:30:0016/12/185 - 2 14:30:0014:30
2018-12-09 14:30:0009/12/180 - 3 14:30:0014:30
2018-12-02 14:30:0002/12/182 - 0 14:30:0014:30
2018-11-25 14:30:0025/11/182 - 1 14:30:0014:30
2018-11-18 14:30:0018/11/180 - 0 14:30:0014:30
2018-11-11 14:30:0011/11/182 - 0 14:30:0014:30
2018-11-04 14:30:0004/11/181 - 4 14:30:0014:30
2018-10-28 14:30:0028/10/184 - 1 14:30:0014:30
2018-10-21 15:30:0021/10/182 - 1 15:30:0015:30
2018-10-14 15:30:0014/10/181 - 1 15:30:0015:30
2018-10-07 15:30:0007/10/180 - 1 15:30:0015:30
2018-09-29 15:30:0029/09/185 - 0 15:30:0015:30
2018-09-23 15:30:0023/09/180 - 0 15:30:0015:30
2018-09-16 15:30:0016/09/183 - 2 15:30:0015:30